Previsão horária em Bolshie Klyuchi

Hoje, 9 Março, Terça-feira

Tempo Temperatura Precipitação Vento Pressão Humidade
00:00 -14°C° 0 mm 2 m/s 740 mmHg 95%
01:00 -15°C° 0 mm 2 m/s 740 mmHg 96%
02:00 -16°C° 0 mm 2 m/s 741 mmHg 96%
03:00 -16°C° 0 mm 2 m/s 741 mmHg 97%
04:00 -17°C° 0 mm 2 m/s 742 mmHg 97%
05:00 -18°C° 0 mm 2 m/s 742 mmHg 97%
06:00 -18°C° 0 mm 2 m/s 743 mmHg 97%
07:00 -17°C° 0 mm 2 m/s 743 mmHg 96%
08:00 -16°C° 0 mm 2 m/s 744 mmHg 95%
09:00 -15°C° 0 mm 2 m/s 744 mmHg 94%
10:00 -12°C° 0 mm 1 m/s 744 mmHg 92%
11:00 -11°C° 0 mm 1 m/s 745 mmHg 90%
12:00 -10°C° 0 mm 1 m/s 745 mmHg 88%
13:00 -10°C° 0 mm 1 m/s 745 mmHg 88%
14:00 -9°C° 0 mm 1 m/s 745 mmHg 88%
15:00 -9°C° 0 mm 1 m/s 745 mmHg 88%
16:00 -12°C° 0.1 mm 2 m/s 745 mmHg 91%
17:00 -13°C° 0.1 mm 2 m/s 746 mmHg 93%
18:00 -13°C° 0.1 mm 2 m/s 746 mmHg 95%
19:00 -14°C° 0.1 mm 2 m/s 746 mmHg 95%
20:00 -15°C° 0.1 mm 3 m/s 746 mmHg 95%
21:00 -15°C° 0.1 mm 3 m/s 746 mmHg 95%
22:00 -16°C° 0 mm 3 m/s 746 mmHg 94%
23:00 -17°C° 0 mm 4 m/s 746 mmHg 94%

Amanhã, 10 Março, Quarta-feira

Tempo Temperatura Precipitação Vento Pressão Humidade
00:00 -18°C° 0 mm 4 m/s 746 mmHg 94%
01:00 -18°C° 0 mm 4 m/s 746 mmHg 94%
02:00 -19°C° 0 mm 4 m/s 747 mmHg 93%
03:00 -20°C° 0 mm 4 m/s 747 mmHg 93%
04:00 -21°C° 0 mm 5 m/s 747 mmHg 93%
05:00 -22°C° 0 mm 5 m/s 747 mmHg 93%
06:00 -24°C° 0 mm 5 m/s 748 mmHg 93%
07:00 -24°C° 0 mm 5 m/s 748 mmHg 93%
08:00 -24°C° 0 mm 5 m/s 749 mmHg 93%
09:00 -25°C° 0 mm 5 m/s 749 mmHg 93%
10:00 -24°C° 0 mm 5 m/s 750 mmHg 92%
11:00 -24°C° 0 mm 5 m/s 750 mmHg 92%
12:00 -24°C° 0 mm 5 m/s 750 mmHg 91%
13:00 -22°C° 0 mm 5 m/s 751 mmHg 89%
14:00 -22°C° 0 mm 5 m/s 751 mmHg 87%
15:00 -22°C° 0 mm 5 m/s 751 mmHg 85%
16:00 -24°C° 0 mm 5 m/s 752 mmHg 87%
17:00 -24°C° 0 mm 4 m/s 752 mmHg 89%
18:00 -25°C° 0 mm 4 m/s 753 mmHg 91%
19:00 -25°C° 0 mm 3 m/s 753 mmHg 92%
20:00 -26°C° 0 mm 3 m/s 753 mmHg 92%
21:00 -27°C° 0 mm 3 m/s 754 mmHg 93%
22:00 -27°C° 0 mm 3 m/s 754 mmHg 95%
23:00 -29°C° 0 mm 3 m/s 754 mmHg 96%

Depois de amanhã, 11 Março, Quinta-feira

Tempo Temperatura Precipitação Vento Pressão Humidade
00:00 -29°C° 0 mm 3 m/s 754 mmHg 98%
01:00 -29°C° 0 mm 3 m/s 754 mmHg 98%
02:00 -29°C° 0 mm 3 m/s 754 mmHg 99%
03:00 -29°C° 0 mm 3 m/s 754 mmHg 99%
04:00 -29°C° 0 mm 3 m/s 754 mmHg 99%
05:00 -29°C° 0 mm 3 m/s 754 mmHg 99%
06:00 -29°C° 0 mm 3 m/s 754 mmHg 98%
07:00 -27°C° 0 mm 4 m/s 754 mmHg 96%
08:00 -25°C° 0 mm 4 m/s 754 mmHg 95%
09:00 -23°C° 0 mm 4 m/s 754 mmHg 93%
10:00 -22°C° 0 mm 4 m/s 754 mmHg 91%
11:00 -19°C° 0 mm 4 m/s 754 mmHg 90%
12:00 -18°C° 0 mm 4 m/s 754 mmHg 89%
13:00 -17°C° 0 mm 4 m/s 755 mmHg 89%
14:00 -16°C° 0 mm 4 m/s 755 mmHg 89%
15:00 -15°C° 0 mm 4 m/s 755 mmHg 89%
16:00 -15°C° 0 mm 4 m/s 755 mmHg 90%
17:00 -15°C° 0 mm 4 m/s 755 mmHg 92%
18:00 -15°C° 0 mm 4 m/s 755 mmHg 93%
19:00 -15°C° 0 mm 4 m/s 756 mmHg 94%
20:00 -16°C° 0 mm 4 m/s 756 mmHg 94%
21:00 -16°C° 0 mm 4 m/s 756 mmHg 94%
22:00 -17°C° 0 mm 4 m/s 757 mmHg 94%
23:00 -17°C° 0 mm 4 m/s 757 mmHg 95%

12 Março, Sexta-feira

Tempo Temperatura Precipitação Vento Pressão Humidade
00:00 -17°C° 0 mm 3 m/s 757 mmHg 96%
01:00 -18°C° 0 mm 3 m/s 757 mmHg 96%
02:00 -19°C° 0 mm 3 m/s 758 mmHg 97%
03:00 -19°C° 0 mm 3 m/s 758 mmHg 97%
04:00 -21°C° 0 mm 3 m/s 758 mmHg 97%
05:00 -22°C° 0 mm 3 m/s 759 mmHg 97%
06:00 -22°C° 0 mm 3 m/s 759 mmHg 97%
07:00 -21°C° 0 mm 3 m/s 759 mmHg 96%
08:00 -20°C° 0 mm 4 m/s 760 mmHg 95%
09:00 -19°C° 0 mm 4 m/s 760 mmHg 93%
10:00 -17°C° 0 mm 4 m/s 760 mmHg 91%
11:00 -16°C° 0 mm 4 m/s 760 mmHg 89%
12:00 -15°C° 0 mm 4 m/s 760 mmHg 87%
13:00 -14°C° 0 mm 4 m/s 760 mmHg 87%
14:00 -14°C° 0 mm 4 m/s 760 mmHg 86%
15:00 -14°C° 0 mm 5 m/s 760 mmHg 85%
16:00 -15°C° 0 mm 4 m/s 760 mmHg 87%
17:00 -17°C° 0 mm 4 m/s 761 mmHg 89%
18:00 -17°C° 0 mm 3 m/s 761 mmHg 91%
19:00 -18°C° 0 mm 3 m/s 761 mmHg 90%
20:00 -19°C° 0 mm 3 m/s 761 mmHg 90%
21:00 -19°C° 0 mm 3 m/s 761 mmHg 89%
22:00 -19°C° 0 mm 3 m/s 761 mmHg 90%
23:00 -21°C° 0 mm 3 m/s 762 mmHg 91%

13 Março, Sábado

Tempo Temperatura Precipitação Vento Pressão Humidade
00:00 -21°C° 0 mm 3 m/s 762 mmHg 92%
01:00 -21°C° 0 mm 3 m/s 762 mmHg 90%
02:00 -19°C° 0 mm 2 m/s 762 mmHg 88%
03:00 -19°C° 0 mm 2 m/s 762 mmHg 87%
04:00 -20°C° 0 mm 2 m/s 762 mmHg 86%
05:00 -20°C° 0 mm 2 m/s 762 mmHg 85%
06:00 -20°C° 0 mm 2 m/s 762 mmHg 85%
07:00 -19°C° 0 mm 3 m/s 762 mmHg 85%
08:00 -18°C° 0 mm 3 m/s 762 mmHg 86%
09:00 -16°C° 0 mm 3 m/s 762 mmHg 86%
10:00 -15°C° 0 mm 4 m/s 762 mmHg 85%
11:00 -14°C° 0 mm 4 m/s 762 mmHg 85%
12:00 -12°C° 0 mm 4 m/s 762 mmHg 84%
13:00 -11°C° 0 mm 4 m/s 762 mmHg 84%
14:00 -12°C° 0 mm 5 m/s 761 mmHg 83%
15:00 -12°C° 0 mm 5 m/s 761 mmHg 83%
16:00 -12°C° 0 mm 4 m/s 760 mmHg 85%
17:00 -14°C° 0 mm 4 m/s 760 mmHg 86%
18:00 -15°C° 0 mm 4 m/s 760 mmHg 88%
19:00 -16°C° 0 mm 4 m/s 760 mmHg 88%
20:00 -16°C° 0 mm 4 m/s 759 mmHg 88%
21:00 -16°C° 0 mm 4 m/s 759 mmHg 88%
22:00 -17°C° 0 mm 4 m/s 759 mmHg 89%
23:00 -17°C° 0 mm 4 m/s 759 mmHg 89%

14 Março, Domingo

Tempo Temperatura Precipitação Vento Pressão Humidade
00:00 -18°C° 0 mm 4 m/s 758 mmHg 90%
01:00 -18°C° 0 mm 4 m/s 758 mmHg 91%
02:00 -18°C° 0 mm 4 m/s 757 mmHg 92%
03:00 -17°C° 0 mm 4 m/s 757 mmHg 93%
04:00 -18°C° 0.1 mm 5 m/s 757 mmHg 93%
05:00 -17°C° 0.1 mm 5 m/s 756 mmHg 93%
06:00 -15°C° 0.1 mm 5 m/s 756 mmHg 93%
07:00 -15°C° 0.1 mm 5 m/s 756 mmHg 92%
08:00 -14°C° 0.1 mm 5 m/s 756 mmHg 92%
09:00 -13°C° 0.1 mm 5 m/s 755 mmHg 91%
10:00 -12°C° 0.1 mm 5 m/s 755 mmHg 91%
11:00 -12°C° 0.1 mm 5 m/s 755 mmHg 91%
12:00 -11°C° 0.1 mm 5 m/s 755 mmHg 91%
13:00 -10°C° 0.1 mm 5 m/s 755 mmHg 91%
14:00 -10°C° 0.1 mm 5 m/s 755 mmHg 91%
15:00 -8°C° 0.1 mm 5 m/s 754 mmHg 91%
16:00 -8°C° 0.1 mm 4 m/s 754 mmHg 92%
17:00 -9°C° 0.1 mm 4 m/s 754 mmHg 93%
18:00 -8°C° 0.1 mm 3 m/s 754 mmHg 95%
19:00 -8°C° 0 mm 3 m/s 755 mmHg 94%
20:00 -8°C° 0 mm 3 m/s 755 mmHg 94%
21:00 -9°C° 0 mm 4 m/s 755 mmHg 94%
22:00 -9°C° 0 mm 4 m/s 755 mmHg 94%
23:00 -9°C° 0 mm 4 m/s 755 mmHg 94%
Mostrar mais